Location: Franzen
(48.6167°N, 15.3833°E)
Time: 20:28:58
(UTC+00:00)

Cosmos 1709 Rocket - Pass Details

Date: 30 July 2021
Orbit: 947 x 1002 km, 82.9° (Epoch: 22 September)

Event Time Altitude Azimuth Distance (km) Brightness Sun altitude
Exits shadow 01:44:46 - 265° (W) 3,088 6.2 -14.1°
Reaches altitude 10° 01:46:32 10° 279° (W) 2,767 6.1 -13.9°
Maximum altitude 01:49:17 13° 305° (NW) 2,562 6.2 -13.6°
Drops below altitude 10° 01:52:04 10° 331° (NNW) 2,782 6.7 -13.3°
Sets 01:56:24 0° 359° (N) 3,741 7.8 -12.8°
